UpperLogo

[source: ADDS]
METAR
LCLK 250330Z 28004KT CAVOK 10/M02 Q1016 NOSIG =
TAF
TAF LCLK 242330Z 2500/2524 33006KT CAVOK BECMG 2509/2512 20013KT BECMG 2517/2519 33006KT =
Error
  • JLIB_APPLICATION_ERROR_COMPONENT_NOT_LOADING

mp3

AOPA Cyprus

AOPA sticker

The Aircraft Owners and Pilots Association (AOPA Cyprus), was formed in 1994.  They serves the interests and needs of its members as aircraft owners and pilots, and establishes, maintains, and articulates positions of leadership to promote the economy, safety, and popularity of flight in aircraft. AOPA Cyprus provides members with regular club meetings, seminars, and clinics on air safety issues. Members are also represented before government.  AOPA-Cyprus works to increase general aviation awareness in their country by offering free support to non-pilots on the new media.
Ioannis Papaiacovou
President

 

Login / Register

USER: AOPA Card Number PASSWORD : Your Phone



To Change your password login first and then go to EDIT.